Time,TemperatureF,DewpointF,PressureIn,WindDirection,WindDirectionDegrees,WindSpeedMPH,WindSpeedGustMPH,Humidity,HourlyPrecipIn,Conditions,Clouds,dailyrainin,SoftwareType,DateUTC
2013-04-11 00:00:00,33.3,33.3,28.82,NNE,18,4.0,8.0,100,0.06,,OVC014,0.00,VWS V14.01,2013-04-11 05:00:00,
2013-04-11 00:30:00,33.4,33.4,28.79,NE,45,5.0,14.0,100,0.07,,OVC014,0.03,VWS V14.01,2013-04-11 05:30:00,
2013-04-11 00:40:00,33.5,33.5,28.69,NNE,22,7.0,18.0,100,0.06,,OVC014,0.03,VWS V14.01,2013-04-11 05:40:00,
2013-04-11 01:01:00,33.4,33.4,28.70,ESE,112,7.0,20.0,100,0.05,,OVC014,0.04,VWS V14.01,2013-04-11 06:01:00,
2013-04-11 01:06:00,33.7,33.7,28.73,East,81,4.0,14.0,100,0.04,,-RA,0.04,VWS V14.01,2013-04-11 06:06:00,
2013-04-11 01:11:00,33.7,33.7,28.71,ENE,71,0.0,11.0,100,0.03,,-RA,0.04,VWS V14.01,2013-04-11 06:11:00,
2013-04-11 01:16:00,33.5,33.5,28.70,East,95,5.0,12.0,100,0.03,,-RA,0.04,VWS V14.01,2013-04-11 06:16:00,
2013-04-11 01:21:00,33.8,33.8,28.75,SSE,157,6.0,11.0,100,0.02,,-RA,0.04,VWS V14.01,2013-04-11 06:21:00,
2013-04-11 01:26:00,33.9,33.9,28.74,NE,37,3.0,18.0,100,0.02,,-RA,0.04,VWS V14.01,2013-04-11 06:26:00,
2013-04-11 01:31:00,33.9,33.9,28.75,ESE,116,6.0,14.0,100,0.01,,-RA,0.04,VWS V14.01,2013-04-11 06:31:00,
2013-04-11 01:36:00,33.9,33.9,28.73,ENE,65,2.0,17.0,100,0.01,,-RA,0.04,VWS V14.01,2013-04-11 06:36:00,
2013-04-11 01:41:00,33.9,33.9,28.72,ENE,68,0.0,7.0,100,0.01,,-RA,0.04,VWS V14.01,2013-04-11 06:41:00,
2013-04-11 01:46:00,34.0,34.0,28.72,South,191,5.0,16.0,100,0.01,,-RA,0.04,VWS V14.01,2013-04-11 06:46:00,
2013-04-11 01:52:00,33.9,33.9,28.74,NE,55,5.0,14.0,100,0.00,,OVC010,0.04,VWS V14.01,2013-04-11 06:52:00,
2013-04-11 01:57:00,34.1,34.1,28.73,ENE,70,4.0,14.0,100,0.00,,OVC010,0.04,VWS V14.01,2013-04-11 06:57:00,
2013-04-11 02:02:00,34.0,34.0,28.73,ENE,72,8.0,11.0,100,0.00,,OVC010,0.04,VWS V14.01,2013-04-11 07:02:00,
2013-04-11 02:07:00,34.1,34.1,28.72,East,95,2.0,11.0,100,0.00,,OVC010,0.04,VWS V14.01,2013-04-11 07:07:00,
2013-04-11 02:12:00,34.0,34.0,28.73,ENE,71,6.0,11.0,100,0.00,,OVC010,0.04,VWS V14.01,2013-04-11 07:12:00,
2013-04-11 02:17:00,33.8,33.8,28.72,ENE,77,4.0,13.0,100,0.00,,OVC010,0.04,VWS V14.01,2013-04-11 07:17:00,
2013-04-11 02:22:00,34.1,34.1,28.72,NE,35,4.0,5.0,100,0.00,,OVC010,0.04,VWS V14.01,2013-04-11 07:22:00,
2013-04-11 02:27:00,34.1,34.1,28.72,NNE,32,0.0,13.0,100,0.00,,OVC010,0.04,VWS V14.01,2013-04-11 07:27:00,
2013-04-11 02:32:00,33.9,33.9,28.71,South,185,1.0,3.0,100,0.00,,OVC010,0.04,VWS V14.01,2013-04-11 07:32:00,
2013-04-11 02:37:00,33.7,33.7,28.71,NNE,20,0.0,11.0,100,0.00,,OVC010,0.04,VWS V14.01,2013-04-11 07:37:00,
2013-04-11 02:42:00,34.0,34.0,28.71,NNE,17,1.0,7.0,100,0.00,,OVC010,0.04,VWS V14.01,2013-04-11 07:42:00,
2013-04-11 02:47:00,33.9,33.9,28.70,NNE,32,2.0,7.0,100,0.01,,OVC010,0.05,VWS V14.01,2013-04-11 07:47:00,
2013-04-11 02:52:00,33.9,33.9,28.70,NNE,25,3.0,8.0,100,0.01,,OVC010,0.05,VWS V14.01,2013-04-11 07:52:00,
2013-04-11 02:57:00,33.9,33.9,28.70,West,267,3.0,8.0,100,0.01,,OVC010,0.05,VWS V14.01,2013-04-11 07:57:00,
2013-04-11 03:02:00,33.9,33.9,28.69,NE,49,6.0,8.0,100,0.01,,OVC010,0.05,VWS V14.01,2013-04-11 08:02:00,
2013-04-11 03:07:00,33.9,33.9,28.69,ENE,62,1.0,8.0,100,0.01,,OVC010,0.05,VWS V14.01,2013-04-11 08:07:00,
2013-04-11 03:12:00,33.9,33.9,28.69,NNE,33,0.0,6.0,100,0.01,,OVC010,0.05,VWS V14.01,2013-04-11 08:12:00,
2013-04-11 03:17:00,33.8,33.8,28.68,NE,36,2.0,7.0,100,0.01,,OVC010,0.05,VWS V14.01,2013-04-11 08:17:00,
2013-04-11 03:22:00,33.8,33.8,28.69,North,356,1.0,5.0,100,0.01,,OVC010,0.05,VWS V14.01,2013-04-11 08:22:00,
2013-04-11 03:27:00,33.8,33.8,28.69,NE,38,1.0,7.0,100,0.01,,OVC010,0.05,VWS V14.01,2013-04-11 08:27:00,
2013-04-11 03:32:00,33.9,33.9,28.70,ENE,65,3.0,11.0,100,0.01,,OVC010,0.05,VWS V14.01,2013-04-11 08:32:00,
2013-04-11 03:37:00,33.8,33.8,28.69,North,6,1.0,11.0,100,0.01,,OVC010,0.05,VWS V14.01,2013-04-11 08:37:00,
2013-04-11 03:42:00,33.8,33.8,28.69,NE,36,8.0,8.0,100,0.01,,OVC010,0.05,VWS V14.01,2013-04-11 08:42:00,
2013-04-11 03:47:00,33.9,33.9,28.68,NE,49,3.0,8.0,100,0.01,,OVC010,0.05,VWS V14.01,2013-04-11 08:47:00,
2013-04-11 03:52:00,33.6,33.6,28.67,ENE,72,4.0,8.0,100,0.00,,OVC010,0.05,VWS V14.01,2013-04-11 08:52:00,
2013-04-11 03:57:00,33.5,33.5,28.67,ENE,64,5.0,9.0,100,0.00,,OVC010,0.05,VWS V14.01,2013-04-11 08:57:00,
2013-04-11 04:02:00,33.7,33.7,28.67,NNW,336,2.0,7.0,100,0.01,,OVC010,0.06,VWS V14.01,2013-04-11 09:02:00,
2013-04-11 04:07:00,33.7,33.7,28.67,ESE,115,2.0,7.0,100,0.01,,OVC010,0.06,VWS V14.01,2013-04-11 09:07:00,
2013-04-11 04:12:00,33.7,33.7,28.68,ENE,74,2.0,6.0,100,0.01,,OVC010,0.06,VWS V14.01,2013-04-11 09:12:00,
2013-04-11 04:17:00,33.5,33.5,28.67,NNE,17,1.0,10.0,100,0.01,,OVC010,0.06,VWS V14.01,2013-04-11 09:17:00,
2013-04-11 04:22:00,33.7,33.7,28.67,ESE,105,4.0,5.0,100,0.01,,OVC010,0.06,VWS V14.01,2013-04-11 09:22:00,
2013-04-11 04:27:00,33.7,33.7,28.67,East,85,6.0,17.0,100,0.02,,OVC010,0.07,VWS V14.01,2013-04-11 09:27:00,
2013-04-11 04:32:00,33.7,33.7,28.66,SE,143,6.0,6.0,100,0.03,,OVC010,0.08,VWS V14.01,2013-04-11 09:32:00,
2013-04-11 04:37:00,33.5,33.5,28.65,ESE,103,3.0,13.0,100,0.03,,-RA,0.08,VWS V14.01,2013-04-11 09:37:00,
2013-04-11 04:42:00,33.6,33.6,28.65,ESE,113,3.0,9.0,100,0.03,,-RA,0.08,VWS V14.01,2013-04-11 09:42:00,
2013-04-11 04:47:00,33.6,33.6,28.66,North,5,4.0,10.0,100,0.03,,-RA,0.08,VWS V14.01,2013-04-11 09:47:00,
2013-04-11 04:52:00,33.4,33.4,28.66,North,11,5.0,7.0,100,0.04,,-RA,0.09,VWS V14.01,2013-04-11 09:52:00,
2013-04-11 04:57:00,33.3,33.3,28.66,NNW,337,3.0,10.0,100,0.04,,-RA,0.09,VWS V14.01,2013-04-11 09:57:00,
2013-04-11 05:02:00,33.5,33.5,28.65,ENE,74,3.0,11.0,100,0.04,,-RA,0.09,VWS V14.01,2013-04-11 10:02:00,
2013-04-11 05:07:00,33.5,33.5,28.65,NNE,17,3.0,11.0,100,0.04,,-RA,0.09,VWS V14.01,2013-04-11 10:07:00,
2013-04-11 05:12:00,33.3,33.3,28.64,NNE,17,2.0,6.0,100,0.03,,-RA,0.09,VWS V14.01,2013-04-11 10:12:00,
2013-04-11 05:17:00,33.3,33.3,28.64,NE,48,5.0,10.0,100,0.03,,-RA,0.09,VWS V14.01,2013-04-11 10:17:00,
2013-04-11 05:22:00,33.3,33.3,28.64,NE,36,4.0,7.0,100,0.04,,OVC010,0.10,VWS V14.01,2013-04-11 10:22:00,
2013-04-11 05:27:00,33.3,33.3,28.65,ENE,58,5.0,11.0,100,0.04,,OVC010,0.10,VWS V14.01,2013-04-11 10:27:00,
2013-04-11 05:32:00,33.2,33.2,28.64,East,86,4.0,7.0,100,0.03,,OVC010,0.10,VWS V14.01,2013-04-11 10:32:00,
2013-04-11 05:37:00,33.3,33.3,28.64,East,90,3.0,9.0,100,0.03,,-RA,0.10,VWS V14.01,2013-04-11 10:37:00,
2013-04-11 05:42:00,33.2,33.2,28.65,NE,45,5.0,10.0,100,0.02,,-RA,0.10,VWS V14.01,2013-04-11 10:42:00,
2013-04-11 05:47:00,33.3,33.3,28.64,NNE,28,3.0,10.0,100,0.02,,-RA,0.10,VWS V14.01,2013-04-11 10:47:00,
2013-04-11 05:52:00,33.1,33.1,28.64,ENE,63,3.0,14.0,100,0.02,,OVC010,0.11,VWS V14.01,2013-04-11 10:52:00,
2013-04-11 05:57:00,33.2,33.2,28.63,ENE,65,2.0,14.0,100,0.02,,OVC010,0.11,VWS V14.01,2013-04-11 10:57:00,
2013-04-11 06:02:00,33.2,33.2,28.64,ENE,76,1.0,7.0,100,0.02,,-RA,0.11,VWS V14.01,2013-04-11 11:02:00,
2013-04-11 06:07:00,33.2,33.2,28.63,SW,227,0.0,9.0,100,0.02,,-RA,0.11,VWS V14.01,2013-04-11 11:07:00,
2013-04-11 06:12:00,33.2,33.2,28.62,East,95,4.0,6.0,100,0.03,,-RA,0.12,VWS V14.01,2013-04-11 11:12:00,
2013-04-11 06:17:00,33.1,33.1,28.62,East,83,2.0,6.0,100,0.03,,-RA,0.12,VWS V14.01,2013-04-11 11:17:00,
2013-04-11 06:22:00,33.1,33.1,28.63,NE,44,5.0,9.0,100,0.03,,-RA,0.12,VWS V14.01,2013-04-11 11:22:00,
2013-04-11 06:27:00,33.2,33.2,28.63,East,91,3.0,9.0,100,0.03,,-RA,0.12,VWS V14.01,2013-04-11 11:27:00,
2013-04-11 06:32:00,33.0,33.0,28.63,NNE,28,4.0,10.0,100,0.03,,-RA,0.13,VWS V14.01,2013-04-11 11:32:00,
2013-04-11 06:37:00,33.1,33.1,28.63,ENE,71,2.0,10.0,100,0.04,,,0.14,VWS V14.01,2013-04-11 11:37:00,
2013-04-11 06:42:00,33.1,33.1,28.64,ENE,61,1.0,7.0,100,0.05,,,0.15,VWS V14.01,2013-04-11 11:42:00,
2013-04-11 06:47:00,33.1,33.1,28.64,NE,52,5.0,9.0,100,0.05,,,0.15,VWS V14.01,2013-04-11 11:47:00,
2013-04-11 06:52:00,33.0,33.0,28.63,ENE,65,1.0,8.0,100,0.06,,-RA,0.16,VWS V14.01,2013-04-11 11:52:00,
2013-04-11 06:57:00,33.1,33.1,28.63,NNW,341,5.0,8.0,100,0.06,,-RA,0.16,VWS V14.01,2013-04-11 11:57:00,
2013-04-11 07:02:00,33.1,33.1,28.63,North,349,0.0,7.0,100,0.05,,-RA,0.16,VWS V14.01,2013-04-11 12:02:00,
2013-04-11 07:07:00,33.1,33.1,28.64,SSE,154,4.0,7.0,100,0.05,,-RA,0.16,VWS V14.01,2013-04-11 12:07:00,
2013-04-11 07:12:00,33.1,33.1,28.64,North,0,11.0,11.0,100,0.05,,-RA,0.16,VWS V14.01,2013-04-11 12:12:00,
2013-04-11 07:17:00,33.2,33.2,28.64,NE,55,6.0,11.0,100,0.06,,-RA,0.17,VWS V14.01,2013-04-11 12:17:00,
2013-04-11 07:22:00,33.2,33.2,28.63,WSW,250,0.0,5.0,100,0.05,,-RA,0.17,VWS V14.01,2013-04-11 12:22:00,
2013-04-11 07:27:00,33.3,33.3,28.64,NNE,21,1.0,6.0,100,0.06,,-RA,0.18,VWS V14.01,2013-04-11 12:27:00,
2013-04-11 07:32:00,33.3,33.3,28.64,East,84,3.0,5.0,100,0.06,,-RA,0.18,VWS V14.01,2013-04-11 12:32:00,
2013-04-11 07:37:00,33.2,33.2,28.64,North,1,1.0,5.0,100,0.07,,-RA,0.19,VWS V14.01,2013-04-11 12:37:00,
2013-04-11 07:42:00,33.3,33.3,28.65,NNE,30,1.0,12.0,100,0.04,,-RA,0.19,VWS V14.01,2013-04-11 12:42:00,
2013-04-11 07:47:00,33.4,33.4,28.66,East,79,1.0,12.0,100,0.05,,-RA,0.20,VWS V14.01,2013-04-11 12:47:00,
2013-04-11 07:52:00,33.3,33.3,28.66,North,7,0.0,3.0,100,0.06,,-RA,0.21,VWS V14.01,2013-04-11 12:52:00,
2013-04-11 07:57:00,33.4,33.4,28.66,NNW,334,0.0,4.0,100,0.06,,-RA,0.21,VWS V14.01,2013-04-11 12:57:00,
2013-04-11 08:02:00,33.5,33.5,28.66,NNE,18,3.0,3.0,100,0.06,,-RA,0.22,VWS V14.01,2013-04-11 13:02:00,
2013-04-11 08:07:00,33.6,33.6,28.68,South,188,0.0,4.0,100,0.06,,-RA,0.22,VWS V14.01,2013-04-11 13:07:00,
2013-04-11 08:12:00,33.5,33.5,28.68,NNE,24,4.0,6.0,100,0.07,,-RA,0.23,VWS V14.01,2013-04-11 13:12:00,
2013-04-11 08:17:00,33.3,33.3,28.67,ENE,70,0.0,6.0,100,0.07,,-RA,0.23,VWS V14.01,2013-04-11 13:17:00,
2013-04-11 08:22:00,33.6,33.6,28.67,NE,49,0.0,2.0,100,0.07,,-RA,0.24,VWS V14.01,2013-04-11 13:22:00,
2013-04-11 08:27:00,33.7,33.7,28.66,South,186,0.0,5.0,100,0.07,,-RA,0.24,VWS V14.01,2013-04-11 13:27:00,
2013-04-11 08:32:00,33.7,33.7,28.65,ENE,77,4.0,5.0,100,0.06,,-RA,0.24,VWS V14.01,2013-04-11 13:32:00,
2013-04-11 08:37:00,34.0,34.0,28.64,NNE,20,1.0,6.0,100,0.06,,-RA,0.24,VWS V14.01,2013-04-11 13:37:00,
2013-04-11 08:42:00,34.1,34.1,28.64,NNE,16,1.0,4.0,100,0.05,,-RA,0.24,VWS V14.01,2013-04-11 13:42:00,
2013-04-11 08:47:00,34.1,34.1,28.63,North,358,1.0,4.0,100,0.05,,-RA,0.24,VWS V14.01,2013-04-11 13:47:00,
2013-04-11 08:53:00,34.2,34.2,28.63,NE,54,0.0,6.0,100,0.04,,-RA,0.24,VWS V14.01,2013-04-11 13:53:00,
2013-04-11 08:58:00,34.3,34.3,28.62,East,93,3.0,6.0,100,0.04,,-RA,0.24,VWS V14.01,2013-04-11 13:58:00,
2013-04-11 09:03:00,34.3,34.3,28.62,NNE,24,4.0,6.0,100,0.03,,-RA,0.24,VWS V14.01,2013-04-11 14:03:00,
2013-04-11 09:08:00,34.2,34.2,28.62,North,2,2.0,6.0,100,0.03,,-RA,0.24,VWS V14.01,2013-04-11 14:08:00,
2013-04-11 09:13:00,34.5,34.5,28.62,NNE,15,3.0,5.0,100,0.01,,-RA,0.24,VWS V14.01,2013-04-11 14:13:00,
2013-04-11 09:18:00,34.7,34.7,28.62,East,86,1.0,7.0,100,0.01,,-RA,0.24,VWS V14.01,2013-04-11 14:18:00,
2013-04-11 09:23:00,34.7,34.7,28.64,NNE,30,3.0,6.0,100,0.01,,-RA,0.24,VWS V14.01,2013-04-11 14:23:00,
2013-04-11 09:28:00,34.8,34.8,28.64,NNE,12,0.0,6.0,100,0.01,,-RA,0.24,VWS V14.01,2013-04-11 14:28:00,
2013-04-11 09:33:00,34.8,34.8,28.62,NE,34,0.0,4.0,100,0.00,,-RA,0.24,VWS V14.01,2013-04-11 14:33:00,
2013-04-11 09:38:00,34.6,34.6,28.63,ENE,77,2.0,6.0,100,0.01,,-RA,0.25,VWS V14.01,2013-04-11 14:38:00,
2013-04-11 09:43:00,34.9,34.9,28.63,North,1,0.0,3.0,100,0.01,,-RA,0.25,VWS V14.01,2013-04-11 14:43:00,
2013-04-11 09:48:00,35.0,35.0,28.63,SSE,165,1.0,5.0,100,0.01,,-RA,0.25,VWS V14.01,2013-04-11 14:48:00,
2013-04-11 09:53:00,34.8,34.8,28.63,NNE,23,1.0,7.0,100,0.01,,-RA,0.25,VWS V14.01,2013-04-11 14:53:00,
2013-04-11 09:58:00,35.0,35.0,28.61,NE,56,2.0,7.0,100,0.01,,-RA,0.25,VWS V14.01,2013-04-11 14:58:00,
2013-04-11 10:03:00,35.2,35.2,28.61,NE,46,3.0,8.0,100,0.01,,-RA,0.25,VWS V14.01,2013-04-11 15:03:00,
2013-04-11 10:08:00,35.2,35.2,28.62,ENE,77,3.0,8.0,100,0.01,,-RA,0.25,VWS V14.01,2013-04-11 15:08:00,
2013-04-11 10:13:00,35.3,35.3,28.62,ENE,67,0.0,6.0,100,0.01,,-RA,0.25,VWS V14.01,2013-04-11 15:13:00,
2013-04-11 10:18:00,35.1,35.1,28.62,SE,135,2.0,8.0,100,0.01,,-RA,0.25,VWS V14.01,2013-04-11 15:18:00,
2013-04-11 10:23:00,35.4,35.4,28.62,North,1,0.0,6.0,100,0.01,,-RA,0.25,VWS V14.01,2013-04-11 15:23:00,
2013-04-11 10:28:00,35.5,35.5,28.63,NE,40,0.0,6.0,100,0.01,,-RA,0.25,VWS V14.01,2013-04-11 15:28:00,
2013-04-11 10:33:00,35.6,35.6,28.63,NW,311,0.0,8.0,100,0.01,,-RA,0.25,VWS V14.01,2013-04-11 15:33:00,
2013-04-11 10:38:00,35.6,35.6,28.63,East,80,1.0,8.0,100,0.01,,-RA,0.25,VWS V14.01,2013-04-11 15:38:00,
2013-04-11 10:43:00,35.5,35.5,28.64,East,91,4.0,9.0,100,0.00,,-RA,0.25,VWS V14.01,2013-04-11 15:43:00,
2013-04-11 10:48:00,35.9,35.9,28.63,NNE,28,1.0,9.0,100,0.00,,-RA,0.25,VWS V14.01,2013-04-11 15:48:00,
2013-04-11 10:53:00,35.7,35.7,28.62,ENE,73,1.0,7.0,100,0.00,,-RA,0.25,VWS V14.01,2013-04-11 15:53:00,
2013-04-11 10:58:00,35.8,35.8,28.62,NE,36,1.0,7.0,100,0.00,,-RA,0.25,VWS V14.01,2013-04-11 15:58:00,
2013-04-11 11:03:00,35.9,35.9,28.62,NNE,14,3.0,7.0,100,0.00,,-RA,0.25,VWS V14.01,2013-04-11 16:03:00,
2013-04-11 11:08:00,36.0,36.0,28.62,ENE,67,1.0,7.0,100,0.00,,-RA,0.25,VWS V14.01,2013-04-11 16:08:00,
2013-04-11 11:13:00,36.2,36.2,28.62,East,87,1.0,5.0,100,0.00,,-RA,0.25,VWS V14.01,2013-04-11 16:13:00,
2013-04-11 11:18:00,36.3,36.3,28.61,NNE,29,1.0,8.0,100,0.00,,-RA,0.25,VWS V14.01,2013-04-11 16:18:00,
2013-04-11 11:23:00,36.5,36.5,28.61,NNE,29,2.0,8.0,100,0.00,,-RA,0.25,VWS V14.01,2013-04-11 16:23:00,
2013-04-11 11:28:00,36.5,36.5,28.61,ENE,64,2.0,8.0,100,0.00,,-RA,0.25,VWS V14.01,2013-04-11 16:28:00,
2013-04-11 11:33:00,36.5,36.5,28.61,East,80,2.0,10.0,100,0.00,,-RA,0.25,VWS V14.01,2013-04-11 16:33:00,
2013-04-11 11:38:00,36.7,36.7,28.60,NNE,14,2.0,10.0,100,0.00,,-RA,0.25,VWS V14.01,2013-04-11 16:38:00,
2013-04-11 11:43:00,36.7,36.7,28.61,NE,35,5.0,7.0,100,0.00,,-RA,0.25,VWS V14.01,2013-04-11 16:43:00,
2013-04-11 11:48:00,36.7,36.7,28.61,ESE,120,2.0,8.0,100,0.00,,-RA,0.25,VWS V14.01,2013-04-11 16:48:00,
2013-04-11 11:53:00,36.6,36.6,28.60,East,83,3.0,9.0,100,0.00,,-RA,0.25,VWS V14.01,2013-04-11 16:53:00,
2013-04-11 11:58:00,36.7,36.7,28.60,NE,45,3.0,9.0,100,0.00,,-RA,0.25,VWS V14.01,2013-04-11 16:58:00,
2013-04-11 12:03:00,36.7,36.7,28.60,East,83,6.0,6.0,100,0.00,,-RA,0.25,VWS V14.01,2013-04-11 17:03:00,
2013-04-11 12:08:00,36.9,36.9,28.60,ESE,120,2.0,8.0,100,0.00,,-RA,0.25,VWS V14.01,2013-04-11 17:08:00,
2013-04-11 12:13:00,36.5,36.5,28.60,North,0,0.0,5.0,100,0.00,,-RA,0.25,VWS V14.01,2013-04-11 17:13:00,
2013-04-11 12:18:00,36.8,36.8,28.60,SE,131,2.0,9.0,100,0.00,,-RA,0.25,VWS V14.01,2013-04-11 17:18:00,
2013-04-11 12:23:00,36.8,36.8,28.59,SSE,147,3.0,5.0,100,0.00,,-RA,0.25,VWS V14.01,2013-04-11 17:23:00,
2013-04-11 12:28:00,36.7,36.7,28.59,ESE,107,3.0,5.0,100,0.00,,-RA,0.25,VWS V14.01,2013-04-11 17:28:00,
2013-04-11 12:33:00,36.9,36.9,28.58,ENE,76,3.0,5.0,100,0.00,,-RA,0.25,VWS V14.01,2013-04-11 17:33:00,
2013-04-11 12:38:00,36.9,36.9,28.58,NE,35,0.0,7.0,100,0.00,,,0.25,VWS V14.01,2013-04-11 17:38:00,
2013-04-11 12:43:00,37.1,37.1,28.59,ENE,64,2.0,5.0,100,0.00,,,0.25,VWS V14.01,2013-04-11 17:43:00,
2013-04-11 12:48:00,37.2,37.2,28.58,NNE,20,2.0,7.0,100,0.00,,,0.25,VWS V14.01,2013-04-11 17:48:00,
2013-04-11 12:53:00,37.2,37.2,28.58,ENE,59,2.0,3.0,100,0.00,,,0.25,VWS V14.01,2013-04-11 17:53:00,
2013-04-11 12:58:00,37.3,37.3,28.58,WSW,253,5.0,10.0,100,0.00,,,0.25,VWS V14.01,2013-04-11 17:58:00,
2013-04-11 13:03:00,37.3,37.3,28.58,NNE,28,4.0,7.0,100,0.00,,,0.25,VWS V14.01,2013-04-11 18:03:00,
2013-04-11 13:08:00,37.2,37.2,28.58,North,6,3.0,7.0,100,0.00,,,0.25,VWS V14.01,2013-04-11 18:08:00,
2013-04-11 13:13:00,37.0,37.0,28.58,ENE,60,3.0,7.0,100,0.00,,,0.25,VWS V14.01,2013-04-11 18:13:00,
2013-04-11 13:18:00,37.3,37.3,28.58,East,83,0.0,8.0,100,0.00,,,0.25,VWS V14.01,2013-04-11 18:18:00,
2013-04-11 13:23:00,37.3,37.3,28.59,NNE,23,5.0,9.0,100,0.00,,,0.25,VWS V14.01,2013-04-11 18:23:00,
2013-04-11 13:28:00,37.4,37.4,28.59,North,9,4.0,9.0,100,0.00,,,0.25,VWS V14.01,2013-04-11 18:28:00,
2013-04-11 13:33:00,37.4,37.4,28.58,NE,40,2.0,5.0,100,0.00,,,0.25,VWS V14.01,2013-04-11 18:33:00,
2013-04-11 13:38:00,37.5,37.5,28.58,North,1,0.0,5.0,100,0.01,,,0.26,VWS V14.01,2013-04-11 18:38:00,
2013-04-11 13:43:00,37.5,37.5,28.58,ENE,63,3.0,6.0,100,0.01,,,0.26,VWS V14.01,2013-04-11 18:43:00,
2013-04-11 13:48:00,37.6,37.6,28.59,ESE,115,3.0,6.0,100,0.01,,,0.26,VWS V14.01,2013-04-11 18:48:00,
2013-04-11 13:53:00,37.6,37.6,28.59,East,88,1.0,4.0,100,0.01,,,0.26,VWS V14.01,2013-04-11 18:53:00,
2013-04-11 13:58:00,37.7,37.7,28.58,ENE,68,3.0,4.0,100,0.01,,,0.26,VWS V14.01,2013-04-11 18:58:00,
2013-04-11 14:03:00,37.8,37.8,28.58,NE,45,2.0,4.0,100,0.01,,,0.26,VWS V14.01,2013-04-11 19:03:00,
2013-04-11 14:08:00,37.9,37.9,28.58,ENE,64,4.0,7.0,100,0.01,,,0.26,VWS V14.01,2013-04-11 19:08:00,
2013-04-11 14:13:00,37.7,37.7,28.57,NNE,29,4.0,7.0,100,0.01,,,0.26,VWS V14.01,2013-04-11 19:13:00,
2013-04-11 14:18:00,38.1,38.1,28.57,NE,40,1.0,9.0,100,0.01,,,0.26,VWS V14.01,2013-04-11 19:18:00,
2013-04-11 14:23:00,38.3,38.3,28.57,NNE,25,3.0,6.0,100,0.01,,,0.26,VWS V14.01,2013-04-11 19:23:00,
2013-04-11 14:28:00,38.1,38.1,28.57,NE,48,1.0,7.0,100,0.01,,,0.26,VWS V14.01,2013-04-11 19:28:00,
2013-04-11 14:33:00,38.2,38.2,28.56,East,81,2.0,9.0,100,0.01,,,0.26,VWS V14.01,2013-04-11 19:33:00,
2013-04-11 14:38:00,38.5,38.5,28.57,North,2,2.0,9.0,100,0.01,,,0.26,VWS V14.01,2013-04-11 19:38:00,
2013-04-11 14:43:00,38.6,38.6,28.57,SE,136,5.0,11.0,100,0.00,,,0.26,VWS V14.01,2013-04-11 19:43:00,
2013-04-11 14:48:00,38.5,38.5,28.57,NE,48,3.0,13.0,100,0.00,,,0.26,VWS V14.01,2013-04-11 19:48:00,
2013-04-11 14:53:00,38.2,38.2,28.57,North,0,0.0,11.0,100,0.00,,,0.26,VWS V14.01,2013-04-11 19:53:00,
2013-04-11 14:58:00,38.4,38.4,28.57,NNE,25,0.0,11.0,100,0.00,,,0.26,VWS V14.01,2013-04-11 19:58:00,
2013-04-11 15:03:00,38.5,38.5,28.57,NNE,14,5.0,5.0,100,0.00,,,0.26,VWS V14.01,2013-04-11 20:03:00,
2013-04-11 15:08:00,38.4,38.4,28.57,NE,41,1.0,7.0,100,0.00,,,0.26,VWS V14.01,2013-04-11 20:08:00,
2013-04-11 15:13:00,38.5,38.5,28.56,NNE,24,0.0,6.0,100,0.00,,,0.26,VWS V14.01,2013-04-11 20:13:00,
2013-04-11 15:18:00,38.5,38.5,28.57,NE,45,1.0,6.0,100,0.00,,,0.26,VWS V14.01,2013-04-11 20:18:00,
2013-04-11 15:23:00,38.6,38.6,28.57,NNE,18,4.0,5.0,100,0.00,,,0.26,VWS V14.01,2013-04-11 20:23:00,
2013-04-11 15:28:00,38.3,38.3,28.56,ESE,117,5.0,7.0,100,0.00,,,0.26,VWS V14.01,2013-04-11 20:28:00,
2013-04-11 15:33:00,38.1,38.1,28.56,NNE,23,2.0,6.0,100,0.00,,,0.26,VWS V14.01,2013-04-11 20:33:00,
2013-04-11 15:38:00,38.3,38.3,28.55,NE,54,3.0,8.0,100,0.00,,,0.26,VWS V14.01,2013-04-11 20:38:00,
2013-04-11 15:43:00,38.4,38.4,28.56,NE,45,1.0,5.0,100,0.00,,,0.26,VWS V14.01,2013-04-11 20:43:00,
2013-04-11 15:48:00,38.2,38.2,28.55,ENE,63,1.0,5.0,100,0.00,,,0.26,VWS V14.01,2013-04-11 20:48:00,
2013-04-11 15:53:00,37.9,37.9,28.55,NNE,18,3.0,9.0,100,0.00,,,0.26,VWS V14.01,2013-04-11 20:53:00,
2013-04-11 15:58:00,38.0,38.0,28.56,NE,53,3.0,9.0,100,0.00,,,0.26,VWS V14.01,2013-04-11 20:58:00,
2013-04-11 16:03:00,37.9,37.9,28.55,ESE,110,5.0,6.0,100,0.00,,,0.26,VWS V14.01,2013-04-11 21:03:00,
2013-04-11 16:08:00,37.8,37.8,28.55,NE,35,3.0,8.0,100,0.00,,,0.26,VWS V14.01,2013-04-11 21:08:00,
2013-04-11 16:13:00,37.5,37.5,28.55,ESE,118,0.0,3.0,100,0.00,,,0.26,VWS V14.01,2013-04-11 21:13:00,
2013-04-11 16:18:00,37.7,37.7,28.55,ENE,63,3.0,5.0,100,0.00,,,0.26,VWS V14.01,2013-04-11 21:18:00,
2013-04-11 16:23:00,37.8,37.8,28.55,NNE,14,3.0,4.0,100,0.00,,,0.26,VWS V14.01,2013-04-11 21:23:00,
2013-04-11 16:28:00,37.4,37.4,28.55,NNE,17,0.0,5.0,100,0.00,,,0.26,VWS V14.01,2013-04-11 21:28:00,
2013-04-11 16:33:00,37.4,37.4,28.56,NE,34,1.0,12.0,100,0.00,,,0.26,VWS V14.01,2013-04-11 21:33:00,
2013-04-11 16:38:00,37.3,37.3,28.57,East,94,2.0,12.0,100,0.00,,-RA,0.26,VWS V14.01,2013-04-11 21:38:00,
2013-04-11 16:43:00,37.4,37.4,28.57,NE,37,1.0,4.0,100,0.00,,-RA,0.26,VWS V14.01,2013-04-11 21:43:00,
2013-04-11 16:48:00,37.3,37.3,28.56,NE,35,3.0,5.0,100,0.00,,-RA,0.26,VWS V14.01,2013-04-11 21:48:00,
2013-04-11 16:53:00,37.1,37.1,28.56,North,1,1.0,8.0,100,0.00,,-RA,0.26,VWS V14.01,2013-04-11 21:53:00,
2013-04-11 16:58:00,37.1,37.1,28.56,NE,55,0.0,11.0,100,0.00,,-RA,0.26,VWS V14.01,2013-04-11 21:58:00,
2013-04-11 17:03:00,36.9,36.9,28.56,NNE,25,4.0,10.0,100,0.00,,-RA,0.26,VWS V14.01,2013-04-11 22:03:00,
2013-04-11 17:08:00,36.9,36.9,28.55,NNE,21,0.0,10.0,100,0.00,,-RA,0.26,VWS V14.01,2013-04-11 22:08:00,
2013-04-11 17:13:00,36.9,36.9,28.56,NE,40,9.0,12.0,100,0.00,,-RA,0.26,VWS V14.01,2013-04-11 22:13:00,
2013-04-11 17:18:00,36.8,36.8,28.56,ESE,123,1.0,12.0,100,0.00,,-RA,0.26,VWS V14.01,2013-04-11 22:18:00,
2013-04-11 17:23:00,36.9,36.9,28.57,ENE,68,1.0,4.0,100,0.00,,-RA,0.26,VWS V14.01,2013-04-11 22:23:00,
2013-04-11 17:28:00,36.7,36.7,28.57,NE,55,1.0,4.0,100,0.00,,-RA,0.26,VWS V14.01,2013-04-11 22:28:00,
2013-04-11 17:33:00,36.7,36.7,28.56,ENE,71,2.0,5.0,100,0.00,,-RA,0.26,VWS V14.01,2013-04-11 22:33:00,
2013-04-11 17:38:00,36.7,36.7,28.55,North,11,2.0,6.0,100,0.00,,,0.26,VWS V14.01,2013-04-11 22:38:00,
2013-04-11 17:43:00,36.6,36.6,28.56,NE,47,1.0,8.0,100,0.00,,,0.26,VWS V14.01,2013-04-11 22:43:00,
2013-04-11 17:49:00,36.6,36.6,28.56,NE,46,2.0,8.0,100,0.00,,,0.26,VWS V14.01,2013-04-11 22:49:00,
2013-04-11 17:54:00,36.9,36.9,28.56,NE,52,0.0,4.0,100,0.00,,,0.26,VWS V14.01,2013-04-11 22:54:00,
2013-04-11 17:59:00,36.9,36.9,28.55,SSE,151,1.0,5.0,100,0.00,,,0.26,VWS V14.01,2013-04-11 22:59:00,
2013-04-11 18:04:00,36.7,36.7,28.54,North,3,1.0,6.0,100,0.00,,,0.26,VWS V14.01,2013-04-11 23:04:00,
2013-04-11 18:09:00,36.8,36.8,28.53,NNE,15,1.0,8.0,100,0.01,,,0.27,VWS V14.01,2013-04-11 23:09:00,
2013-04-11 18:14:00,36.8,36.8,28.53,NE,34,4.0,6.0,100,0.01,,,0.27,VWS V14.01,2013-04-11 23:14:00,
2013-04-11 18:19:00,36.7,36.7,28.52,ENE,73,4.0,13.0,100,0.01,,,0.27,VWS V14.01,2013-04-11 23:19:00,
2013-04-11 18:24:00,36.4,36.4,28.52,ENE,58,2.0,12.0,100,0.01,,,0.27,VWS V14.01,2013-04-11 23:24:00,
2013-04-11 18:29:00,36.2,36.2,28.53,NE,51,2.0,12.0,100,0.01,,,0.27,VWS V14.01,2013-04-11 23:29:00,
2013-04-11 18:34:00,36.4,36.4,28.53,NNE,19,0.0,7.0,100,0.01,,,0.27,VWS V14.01,2013-04-11 23:34:00,
2013-04-11 18:39:00,36.3,36.3,28.53,SSE,165,0.0,7.0,100,0.01,,,0.27,VWS V14.01,2013-04-11 23:39:00,
2013-04-11 18:44:00,36.0,36.0,28.54,NNE,17,2.0,5.0,100,0.01,,,0.27,VWS V14.01,2013-04-11 23:44:00,
2013-04-11 18:48:00,36.0,36.0,28.55,SSE,155,1.0,7.0,100,0.01,,,0.27,VWS V14.01,2013-04-11 23:48:00,
2013-04-11 18:54:00,35.9,35.9,28.54,ENE,67,2.0,11.0,100,0.01,,,0.27,VWS V14.01,2013-04-11 23:54:00,
2013-04-11 18:59:00,35.9,35.9,28.55,NNE,22,0.0,11.0,100,0.01,,,0.27,VWS V14.01,2013-04-11 23:59:00,
2013-04-11 19:04:00,35.8,35.8,28.54,NNE,28,3.0,7.0,100,0.01,,,0.27,VWS V14.01,2013-04-12 00:04:00,
2013-04-11 19:09:00,35.6,35.6,28.55,ENE,73,0.0,9.0,100,0.01,,,0.27,VWS V14.01,2013-04-12 00:09:00,
2013-04-11 19:14:00,35.6,35.6,28.54,ENE,71,4.0,6.0,100,0.00,,,0.27,VWS V14.01,2013-04-12 00:14:00,
2013-04-11 19:19:00,35.4,35.4,28.54,NNE,14,2.0,8.0,100,0.00,,,0.27,VWS V14.01,2013-04-12 00:19:00,
2013-04-11 19:24:00,35.4,35.4,28.54,NE,35,2.0,5.0,100,0.00,,,0.27,VWS V14.01,2013-04-12 00:24:00,
2013-04-11 19:29:00,35.4,35.4,28.53,NE,40,3.0,6.0,100,0.00,,,0.27,VWS V14.01,2013-04-12 00:29:00,
2013-04-11 19:34:00,35.3,35.3,28.53,North,9,1.0,9.0,100,0.00,,,0.27,VWS V14.01,2013-04-12 00:34:00,
2013-04-11 19:39:00,35.1,35.1,28.53,NNE,30,2.0,9.0,100,0.00,,,0.27,VWS V14.01,2013-04-12 00:39:00,
2013-04-11 19:44:00,35.1,35.1,28.52,North,0,0.0,5.0,100,0.00,,,0.27,VWS V14.01,2013-04-12 00:44:00,
2013-04-11 19:49:00,35.2,35.2,28.52,NNE,17,1.0,5.0,100,0.00,,,0.27,VWS V14.01,2013-04-12 00:49:00,
2013-04-11 19:54:00,35.1,35.1,28.53,NNE,14,5.0,7.0,100,0.00,,,0.27,VWS V14.01,2013-04-12 00:54:00,
2013-04-11 19:59:00,34.7,34.7,28.52,NE,45,1.0,7.0,100,0.00,,,0.27,VWS V14.01,2013-04-12 00:59:00,
2013-04-11 20:04:00,34.8,34.8,28.52,East,100,0.0,7.0,100,0.00,,,0.27,VWS V14.01,2013-04-12 01:04:00,
2013-04-11 20:09:00,34.8,34.8,28.52,NNE,33,4.0,7.0,100,0.00,,,0.27,VWS V14.01,2013-04-12 01:09:00,
2013-04-11 20:14:00,34.9,34.9,28.52,ENE,68,0.0,8.0,100,0.00,,,0.27,VWS V14.01,2013-04-12 01:14:00,
2013-04-11 20:19:00,34.5,34.5,28.52,NNW,339,0.0,8.0,100,0.00,,,0.27,VWS V14.01,2013-04-12 01:19:00,
2013-04-11 20:24:00,34.7,34.7,28.52,North,0,0.0,3.0,100,0.00,,,0.27,VWS V14.01,2013-04-12 01:24:00,
2013-04-11 20:29:00,34.7,34.7,28.53,ENE,74,0.0,6.0,100,0.00,,,0.27,VWS V14.01,2013-04-12 01:29:00,
2013-04-11 20:34:00,34.8,34.8,28.53,ENE,66,0.0,5.0,100,0.00,,,0.27,VWS V14.01,2013-04-12 01:34:00,
2013-04-11 20:39:00,34.4,34.4,28.52,NE,45,1.0,5.0,100,0.00,,,0.27,VWS V14.01,2013-04-12 01:39:00,
2013-04-11 20:44:00,34.7,34.7,28.52,ENE,68,1.0,3.0,100,0.01,,,0.28,VWS V14.01,2013-04-12 01:44:00,
2013-04-11 20:49:00,34.7,34.7,28.52,NE,50,1.0,4.0,100,0.01,,,0.28,VWS V14.01,2013-04-12 01:49:00,
2013-04-11 20:54:00,34.6,34.6,28.52,NNE,25,3.0,3.0,100,0.01,,,0.28,VWS V14.01,2013-04-12 01:54:00,
2013-04-11 20:59:00,34.6,34.6,28.51,North,0,0.0,4.0,100,0.01,,,0.28,VWS V14.01,2013-04-12 01:59:00,
2013-04-11 21:04:00,34.6,34.6,28.51,NNE,17,0.0,3.0,100,0.01,,,0.28,VWS V14.01,2013-04-12 02:04:00,
2013-04-11 21:09:00,34.5,34.5,28.51,ENE,66,3.0,7.0,100,0.01,,,0.28,VWS V14.01,2013-04-12 02:09:00,
2013-04-11 21:14:00,34.6,34.6,28.51,NE,37,2.0,4.0,100,0.01,,,0.28,VWS V14.01,2013-04-12 02:14:00,
2013-04-11 21:19:00,34.2,34.2,28.50,NE,41,2.0,6.0,100,0.01,,,0.28,VWS V14.01,2013-04-12 02:19:00,
2013-04-11 21:24:00,34.4,34.4,28.51,NNW,338,1.0,4.0,100,0.01,,,0.28,VWS V14.01,2013-04-12 02:24:00,
2013-04-11 21:29:00,34.4,34.4,28.51,NE,41,3.0,5.0,100,0.01,,,0.28,VWS V14.01,2013-04-12 02:29:00,
2013-04-11 21:34:00,34.3,34.3,28.51,NNE,21,3.0,5.0,100,0.01,,,0.28,VWS V14.01,2013-04-12 02:34:00,
2013-04-11 21:39:00,34.0,34.0,28.51,North,1,0.0,5.0,100,0.01,,,0.28,VWS V14.01,2013-04-12 02:39:00,
2013-04-11 21:44:00,34.3,34.3,28.51,NNE,22,0.0,4.0,100,0.01,,,0.28,VWS V14.01,2013-04-12 02:44:00,
2013-04-11 21:49:00,34.2,34.2,28.52,NNE,19,2.0,4.0,100,0.01,,,0.28,VWS V14.01,2013-04-12 02:49:00,
2013-04-11 21:54:00,34.1,34.1,28.52,NNE,19,2.0,3.0,100,0.00,,,0.28,VWS V14.01,2013-04-12 02:54:00,
2013-04-11 21:59:00,33.9,33.9,28.52,NNE,28,2.0,5.0,100,0.00,,,0.28,VWS V14.01,2013-04-12 02:59:00,
2013-04-11 22:04:00,34.1,34.1,28.52,NE,41,2.0,5.0,100,0.00,,,0.28,VWS V14.01,2013-04-12 03:04:00,
2013-04-11 22:09:00,34.1,34.1,28.52,NNE,24,1.0,6.0,100,0.00,,,0.28,VWS V14.01,2013-04-12 03:09:00,
2013-04-11 22:14:00,34.1,34.1,28.52,NNE,20,2.0,6.0,100,0.00,,,0.28,VWS V14.01,2013-04-12 03:14:00,
2013-04-11 22:19:00,33.8,33.8,28.52,NNE,20,2.0,6.0,100,0.00,,,0.28,VWS V14.01,2013-04-12 03:19:00,
2013-04-11 22:24:00,34.0,34.0,28.52,SW,214,0.0,4.0,100,0.00,,,0.28,VWS V14.01,2013-04-12 03:24:00,
2013-04-11 22:29:00,34.1,34.1,28.52,North,4,0.0,4.0,100,0.00,,,0.28,VWS V14.01,2013-04-12 03:29:00,
2013-04-11 22:34:00,34.0,34.0,28.52,North,0,0.0,2.0,100,0.00,,,0.28,VWS V14.01,2013-04-12 03:34:00,
2013-04-11 22:39:00,33.7,33.7,28.52,North,7,0.0,2.0,100,0.01,,,0.29,VWS V14.01,2013-04-12 03:39:00,
2013-04-11 22:44:00,34.0,34.0,28.52,North,7,0.0,1.0,100,0.01,,,0.29,VWS V14.01,2013-04-12 03:44:00,
2013-04-11 22:49:00,33.9,33.9,28.52,North,7,0.0,2.0,100,0.01,,,0.29,VWS V14.01,2013-04-12 03:49:00,
2013-04-11 22:54:00,33.9,33.9,28.52,NE,37,0.0,2.0,100,0.01,,,0.29,VWS V14.01,2013-04-12 03:54:00,
2013-04-11 22:59:00,33.6,33.6,28.52,NE,45,0.0,2.0,100,0.02,,,0.30,VWS V14.01,2013-04-12 03:59:00,
2013-04-11 23:00:00,33.9,33.9,28.52,NE,45,0.0,2.0,100,0.02,,,0.30,VWS V14.01,2013-04-12 04:00:00,
2013-04-11 23:05:00,33.9,33.9,28.52,NE,45,0.0,1.0,100,0.02,,,0.30,VWS V14.01,2013-04-12 04:05:00,
2013-04-11 23:10:00,33.8,33.8,28.52,East,86,0.0,1.0,100,0.02,,,0.30,VWS V14.01,2013-04-12 04:10:00,
2013-04-11 23:15:00,33.8,33.8,28.52,ESE,115,0.0,2.0,100,0.02,,,0.30,VWS V14.01,2013-04-12 04:15:00,
2013-04-11 23:20:00,33.9,33.9,28.52,North,8,1.0,2.0,100,0.02,,,0.30,VWS V14.01,2013-04-12 04:20:00,
2013-04-11 23:25:00,33.9,33.9,28.51,North,8,1.0,2.0,100,0.02,,,0.30,VWS V14.01,2013-04-12 04:25:00,
2013-04-11 23:30:00,33.7,33.7,28.51,North,9,3.0,3.0,100,0.02,,,0.30,VWS V14.01,2013-04-12 04:30:00,
2013-04-11 23:35:00,33.7,33.7,28.52,NNE,13,0.0,6.0,100,0.02,,,0.30,VWS V14.01,2013-04-12 04:35:00,
2013-04-11 23:40:00,33.7,33.7,28.52,NNE,15,2.0,2.0,100,0.01,,,0.30,VWS V14.01,2013-04-12 04:40:00,
2013-04-11 23:45:00,33.7,33.7,28.52,NNE,15,1.0,3.0,100,0.01,,,0.30,VWS V14.01,2013-04-12 04:45:00,
2013-04-11 23:50:00,33.6,33.6,28.52,NNE,15,0.0,2.0,100,0.01,,,0.30,VWS V14.01,2013-04-12 04:50:00,
2013-04-11 23:55:00,33.2,33.2,28.51,NE,52,1.0,3.0,100,0.01,,-RA,0.30,VWS V14.01,2013-04-12 04:55:00,